Hourly Data Report for August 06, 2003

TORONTO CITY
ONTARIO

43°40'00.000" N
79°24'00.000" W
112.50 m
6158355
71508
XTO

Download Data

Hourly Data (August 2003)
Hourly Data Report for August 6, 2003
TIME
LST
Temp Definition
°C
Dew Point Definition
°C
Rel Hum Definition
%
Precip. Amount Definition
mm

Wind Dir Definition
10's deg

Wind Spd Definition
km/h
Visibility Definition
km
Stn Press Definition
kPa
Hmdx Definition


Wind Chill Definition


Weather Definition


00:00 21.8 19.1 85   LegendMM LegendMM LegendMM 99.54 29   LegendNANA
01:00 21.5 18.9 85   LegendMM LegendMM LegendMM 99.52 28   LegendNANA
02:00 21.0 18.7 87   LegendMM LegendMM LegendMM 99.51 28   LegendNANA
03:00 21.0 18.5 86   LegendMM LegendMM LegendMM 99.53 27   LegendNANA
04:00 20.9 18.6 87   LegendMM LegendMM LegendMM 99.57 27   LegendNANA
05:00 20.5 18.5 88   LegendMM LegendMM LegendMM 99.60 27   LegendNANA
06:00 20.0 18.5 91   LegendMM LegendMM LegendMM 99.61 26   LegendNANA
07:00 20.3 18.9 92   LegendMM LegendMM LegendMM 99.60 27   LegendNANA
08:00 20.9 18.7 87   LegendMM LegendMM LegendMM 99.62 27   LegendNANA
09:00 22.0 18.6 81   LegendMM LegendMM LegendMM 99.65 28   LegendNANA
10:00 22.7 19.7 83   LegendMM LegendMM LegendMM 99.66 30   LegendNANA
11:00 21.9 19.5 86   LegendMM LegendMM LegendMM 99.69 29   LegendNANA
12:00 23.1 19.5 80   LegendMM LegendMM LegendMM 99.66 30   LegendNANA
13:00 24.1 19.9 77   LegendMM LegendMM LegendMM 99.62 32   LegendNANA
14:00 25.6 20.0 71   LegendMM LegendMM LegendMM 99.59 33   LegendNANA
15:00 25.5 19.2 68   LegendMM LegendMM LegendMM 99.55 32   LegendNANA
16:00 24.1 18.5 71   LegendMM LegendMM LegendMM 99.52 30   LegendNANA
17:00 23.4 18.3 73   LegendMM LegendMM LegendMM 99.56 30   LegendNANA
18:00 23.3 19.2 78   LegendMM LegendMM LegendMM 99.53 30   LegendNANA
19:00 22.7 19.1 80   LegendMM LegendMM LegendMM 99.57 30   LegendNANA
20:00 21.8 19.1 85   LegendMM LegendMM LegendMM 99.59 29   LegendNANA
21:00 21.5 19.7 89   LegendMM LegendMM LegendMM 99.62 29   LegendNANA
22:00 22.0 19.5 86   LegendMM LegendMM LegendMM 99.63 29   LegendNANA
23:00 21.6 19.5 88   LegendMM LegendMM LegendMM 99.65 29   LegendNANA

Notes on Data Quality.

Legend

  • E = Estimated
  • M = Missing
  • NA = Not Available*
  • [empty] = Indicates an unobserved value
Date modified: